Weather History for LTBA - April, 2013

Change the Weather History Date:

Saturday, April 13, 2013

  Actual Average Record
Temperature  
Mean Temperature 60 °F -  
Max Temperature 71 °F 63 °F 77 °F (2004)
Min Temperature 50 °F 49 °F 41 °F (1997)
Degree Days  
Heating Degree Days 4    
Growing Degree Days 10 (Base 50)    
Moisture  
Dew Point 43 °F    
Average Humidity 53    
Maximum Humidity 72    
Minimum Humidity 28    
Precipitation  
Precipitation 0.00 in - - ()
Sea Level Pressure  
Sea Level Pressure 30.07 in    
Wind  
Wind Speed 3 mph ()    
Max Wind Speed 8 mph    
Max Gust Speed -    
Visibility 6.1 miles    
Events      
Averages and records for this station are not official NWS values.
T = Trace of Precipitation, MM = Missing Value Source: Averaged Metar Reports

Daily Weather History Graph

Daily Weather History Graph

Search for Another Location

Airport or City:

Trip Planner

Search our weather history database for the weather conditions in past years. The results will help you decide how hot, cold, wet, or windy it might be!

Date:

Astronomy

Apr. 13, 2013 Rise Set
Actual Time 6:28 AM EEST 7:42 PM EEST
Civil Twilight 6:00 AM EEST 8:10 PM EEST
Nautical Twilight 5:26 AM EEST 8:44 PM EEST
Astronomical Twilight 4:51 AM EEST 9:20 PM EEST
Moon 8:05 AM EEST (4/13) 10:50 PM EEST (4/13)
Length of Visible Light 14h 10m
Length of Day
13h 13m
Waxing Crescent, 8% of the Moon is Illuminated
Apr 13
Waxing Crescent
Apr 18
First Quarter
Apr 25
Full
May 2
Last Quarter
May 10
New

Hourly Weather History & Observations

Time (EEST) Temp. Dew Point Humidity Pressure Visibility Wind Dir Wind Speed Gust Speed Precip Events Conditions
12:20 AM 57.2 °F 44.6 °F 63% 30.06 in - East 3.5 mph - N/A   Clear
12:50 AM 57.2 °F 44.6 °F 63% 30.06 in - East 4.6 mph - N/A   Clear
1:20 AM 55.4 °F 44.6 °F 67% 30.06 in - ESE 4.6 mph - N/A   Clear
1:50 AM 57.2 °F 42.8 °F 59% 30.06 in - Variable 2.3 mph - N/A   Clear
2:20 AM 57.2 °F 42.8 °F 59% 30.06 in - East 3.5 mph - N/A   Clear
2:50 AM 53.6 °F 41.0 °F 62% 30.06 in - Variable 1.2 mph - N/A   Clear
3:00 AM 54 °F 42 °F 53% 30.08 in 6 mi SE 1.2 mph - -  
3:20 AM 51.8 °F 42.8 °F 71% 30.06 in - Calm Calm - N/A   Clear
3:50 AM 53.6 °F 44.6 °F 72% 30.06 in - ESE 3.5 mph - N/A   Clear
4:20 AM 53.6 °F 44.6 °F 72% 30.06 in - Variable 2.3 mph - N/A   Clear
4:50 AM 53.6 °F 44.6 °F 72% 30.06 in - Calm Calm - N/A   Clear
5:20 AM 51.8 °F 42.8 °F 71% 30.06 in - Calm Calm - N/A   Clear
5:50 AM 50.0 °F 41.0 °F 71% 30.06 in - Calm Calm - N/A   Clear
6:20 AM 53.6 °F 42.8 °F 67% 30.06 in - Variable 1.2 mph - N/A   Clear
6:50 AM 55.4 °F 42.8 °F 63% 30.06 in - Variable 2.3 mph - N/A   Clear
7:20 AM 55.4 °F 42.8 °F 63% 30.09 in - Variable 2.3 mph - N/A   Clear
7:50 AM 55.4 °F 42.8 °F 63% 30.09 in - Variable 2.3 mph - N/A   Clear
8:20 AM 57.2 °F 44.6 °F 63% 30.09 in - Variable 2.3 mph - N/A   Clear
8:50 AM 57.2 °F 46.4 °F 67% 30.09 in - South 4.6 mph - N/A   Clear
9:00 AM 58 °F 46 °F 54% 30.11 in 6 mi South 4.6 mph - -  
9:20 AM 59.0 °F 44.6 °F 59% 30.09 in - South 6.9 mph - N/A   Clear
9:50 AM 59.0 °F 46.4 °F 63% 30.09 in - SSW 8.1 mph - N/A   Clear
10:20 AM 59.0 °F 46.4 °F 63% 30.12 in - SSW 8.1 mph - N/A   Clear
10:50 AM 60.8 °F 46.4 °F 59% 30.09 in - SSW 8.1 mph - N/A   Clear
11:20 AM 60.8 °F 44.6 °F 55% 30.09 in - SSW 8.1 mph - N/A   Clear
11:50 AM 60.8 °F 46.4 °F 59% 30.09 in - SSW 8.1 mph - N/A   Clear
12:20 PM 62.6 °F 46.4 °F 55% 30.09 in - SSW 5.8 mph - N/A   Clear
12:50 PM 64.4 °F 46.4 °F 52% 30.09 in - South 6.9 mph - N/A   Clear
1:20 PM 64.4 °F 46.4 °F 52% 30.09 in - SSW 6.9 mph - N/A   Clear
1:50 PM 66.2 °F 44.6 °F 46% 30.09 in - SSW 5.8 mph - N/A   Clear
2:20 PM 68.0 °F 42.8 °F 40% 30.09 in - SW 5.8 mph - N/A   Clear
2:50 PM 68.0 °F 42.8 °F 40% 30.09 in - SW 5.8 mph - N/A   Clear
3:00 PM 68 °F 42 °F 28% 30.09 in 6 mi SW 5.8 mph - -  
3:20 PM 69.8 °F 44.6 °F 40% 30.06 in - SW 4.6 mph - N/A   Clear
3:50 PM 69.8 °F 42.8 °F 38% 30.06 in - SSW 4.6 mph - N/A   Clear
4:20 PM 69.8 °F 41.0 °F 35% 30.06 in - WSW 4.6 mph - N/A   Clear
4:50 PM 69.8 °F 42.8 °F 38% 30.06 in - WSW 4.6 mph - N/A   Clear
5:20 PM 69.8 °F 41.0 °F 35% 30.04 in - WSW 5.8 mph - N/A   Clear
5:50 PM 69.8 °F 39.2 °F 33% 30.04 in - SW 3.5 mph - N/A   Clear
6:20 PM 71.6 °F 39.2 °F 31% 30.04 in - Variable 2.3 mph - N/A   Clear
6:50 PM 68.0 °F 39.2 °F 35% 30.04 in - Variable 2.3 mph - N/A   Clear
7:20 PM 68.0 °F 39.2 °F 35% 30.04 in 6.2 mi Variable 2.3 mph - N/A   Scattered Clouds
7:50 PM 64.4 °F 41.0 °F 42% 30.04 in - SSW 4.6 mph - N/A   Clear
8:20 PM 64.4 °F 42.8 °F 45% 30.04 in 6.2 mi SW 3.5 mph - N/A   Scattered Clouds
8:50 PM 62.6 °F 44.6 °F 52% 30.04 in 6.2 mi West 4.6 mph - N/A   Scattered Clouds
9:00 PM 63 °F 44 °F 38% 30.05 in 6 mi West 4.6 mph - -   Scattered Clouds
9:20 PM 62.6 °F 44.6 °F 52% 30.04 in 6.2 mi Variable 2.3 mph - N/A   Scattered Clouds
9:50 PM 62.6 °F 42.8 °F 48% 30.04 in 6.2 mi Variable 2.3 mph - N/A   Mostly Cloudy
10:20 PM 62.6 °F 42.8 °F 48% 30.04 in 6.2 mi Variable 2.3 mph - N/A   Mostly Cloudy
10:50 PM 62.6 °F 41.0 °F 45% 30.06 in 6.2 mi SSW 3.5 mph - N/A   Mostly Cloudy
11:20 PM 60.8 °F 42.8 °F 52% 30.06 in 6.2 mi Variable 2.3 mph - N/A   Mostly Cloudy
11:50 PM 60.8 °F 42.8 °F 52% 30.06 in 6.2 mi Variable 2.3 mph - N/A   Scattered Clouds